Theta_e
323 319 315 303 301 305 298 297 298 301 304 311 314 313 315 316 317 318 322 327 332 333 333 333 334 335 337 339 339 340 342 343
318 315 309 304 305 296 295 294 292 296 298 301 306 308 313 314 315 317 320 323 325 327 328 329 333 336 336 331 332 339 342 344
311 305 303 303 301 295 295 296 293 292 296 305 307 308 312 315 318 319 320 322 324 325 327 328 329 328 326 333 345 346 345 348
310 316 314 305 300 296 295 294 293 295 300 314 312 314 318 318 320 321 324 325 327 329 331 332 331 332 339 346 348 348 346 344
304 305 307 304 302 297 295 295 293 295 300 314 312 316 318 317 318 318 322 324 325 327 329 337 340 337 338 344 344 337 336 337
299 301 303 302 305 302 298 295 294 298 304 306 309 313 315 315 315 316 320 326 329 332 334 336 335 333 334 336 335 332 331 331
305 306 305 304 304 304 299 298 300 304 303 304 310 313 313 312 315 320 322 326 328 328 330 333 335 335 335 333 333 333 331 329
302 306 307 305 307 309 308 307 305 305 303 309 311 309 308 311 319 321 324 326 328 329 330 328 328 329 329 329 332 330 327 326
298 303 303 302 305 307 308 309 306 303 305 310 308 310 309 315 318 320 322 326 327 328 329 331 331 331 330 327 331 331 329 329
297 297 294 304 311 313 310 310 309 309 310 311 309 310 315 318 320 321 322 325 327 328 328 329 332 331 332 333 332 333 333 332
298 296 301 309 311 310 308 307 313 309 311 313 313 313 316 323 324 322 322 323 325 328 326 326 328 331 330 329 329 328 329 331
301 299 298 308 317 319 316 304 315 311 310 311 310 303 307 319 324 325 325 323 323 326 327 324 322 327 327 325 325 325 325 328
302 299 304 314 319 318 301 303 313 312 312 311 308 310 314 322 322 323 323 323 323 323 322 321 322 324 323 322 322 326 326 328
301 298 298 314 313 307 309 310 313 314 314 315 316 318 320 321 321 321 321 322 323 321 321 322 323 322 320 320 325 327 327 327
303 303 312 314 313 314 312 312 313 316 317 317 316 317 320 320 320 320 321 321 323 321 321 322 323 321 318 320 325 325 325 325
306 311 312 314 316 317 317 317 318 319 318 317 316 317 316 318 318 319 321 321 323 321 320 320 322 322 317 318 320 323 324 325
306 310 310 313 316 317 319 320 320 321 319 318 317 317 316 316 317 318 319 319 320 319 319 319 321 322 322 321 324 324 324 324
305 310 309 309 313 319 319 319 319 318 317 319 319 317 318 317 318 319 319 319 318 318 318 320 321 321 322 323 323 323 322 322
311 313 315 317 319 320 317 317 318 317 317 316 319 319 318 318 319 318 318 318 318 317 319 319 318 317 319 320 319 318 317 320
Wind_Speed
6 4 7 3 4 4 9 2 3 3 7 6 6 9 8 6 6 6 9 12 15 13 13 14 12 12 14 14 16 15 16 14
7 3 0 4 6 2 4 4 2 5 4 4 10 7 7 9 8 9 8 6 8 8 7 5 4 8 6 5 6 6 4 6
2 2 2 4 2 7 7 4 6 2 6 4 9 6 8 5 7 7 7 7 6 6 6 4 4 4 3 3 4 5 4 6
9 7 2 2 2 4 7 2 2 5 5 6 7 5 9 8 8 7 7 8 8 9 9 9 8 8 6 4 4 5 3 5
7 8 5 4 2 6 6 4 2 6 6 2 7 6 6 8 6 5 3 6 6 7 8 8 9 9 8 7 7 3 3 4
5 6 3 4 5 3 6 5 5 5 6 2 2 5 5 6 5 4 7 8 7 9 7 7 7 6 6 6 4 2 4 3
7 7 3 2 1 2 2 5 6 8 8 5 4 4 3 2 5 8 6 8 8 9 7 5 5 6 6 6 7 7 8 8
3 5 3 7 8 7 6 6 7 8 4 4 3 3 4 5 8 8 8 7 6 5 5 6 6 6 6 7 8 7 8 9
5 5 3 7 6 4 5 6 7 6 4 5 2 6 6 6 7 8 6 4 4 4 5 5 6 5 5 5 5 7 7 8
2 4 4 7 1 13 11 6 6 7 5 5 5 4 5 3 7 6 5 5 3 2 1 2 3 3 4 3 5 6 7 7
5 3 2 2 7 5 6 4 2 5 3 3 3 5 5 2 1 5 4 4 4 5 3 3 5 5 4 6 7 6 8 8
3 4 6 7 2 1 4 2 7 4 4 3 3 2 4 2 2 3 4 2 4 5 4 5 5 6 4 7 7 9 9 9
2 2 7 5 6 5 3 5 5 5 4 5 4 5 3 4 3 2 2 4 3 5 6 5 6 5 6 7 8 10 10 8
3 3 6 3 1 4 5 3 6 4 4 6 4 3 1 2 2 5 7 8 8 7 7 7 6 4 7 8 9 10 9 10
6 6 4 4 4 3 3 5 4 6 4 6 5 4 4 3 4 5 6 4 3 3 6 7 7 5 7 8 9 10 10 10
4 3 0 3 3 4 3 6 5 5 5 3 5 5 5 5 4 3 3 5 3 5 6 7 8 7 6 9 10 10 10 10
2 3 1 2 2 4 5 5 4 3 4 5 6 5 5 3 3 3 3 4 4 5 6 8 8 7 7 9 9 10 10 9
7 8 5 4 1 2 6 5 6 9 8 5 6 7 5 3 1 2 5 5 6 6 6 8 8 8 9 10 10 10 11 8
6 5 6 5 6 4 9 6 6 7 5 5 2 4 4 2 2 4 5 5 4 6 6 6 9 8 9 9 9 9 9 9
Wind_Direction
227 229 145 186 186 175 108 38 83 240 302 322 31 43 47 11 49 201 194 204 221 225 208 211 223 220 217 225 236 232 225 228
291 325 245 178 154 75 21 131 197 316 299 267 357 337 35 21 10 359 4 359 358 352 1 341 274 267 269 340 334 324 284 244
325 51 207 348 65 59 110 108 145 125 285 271 272 200 111 48 30 20 26 19 359 334 327 306 300 339 336 340 286 263 184 162
252 275 231 207 154 105 114 231 79 129 286 349 354 350 97 71 43 19 26 21 10 358 348 344 336 332 356 83 77 68 102 76
344 356 6 64 70 99 108 91 177 121 241 38 11 45 44 86 65 44 59 37 11 6 6 6 10 11 7 20 38 59 120 130
194 219 214 27 353 98 113 101 177 195 161 229 323 108 68 58 67 57 41 33 26 22 21 25 22 7 8 2 353 271 242 187
228 241 180 108 289 273 146 157 151 187 148 196 191 125 81 54 68 74 58 43 35 31 24 21 19 2 356 335 326 328 332 333
292 317 83 63 17 75 49 94 57 104 118 144 108 185 103 75 92 75 61 51 45 36 35 36 31 14 357 346 336 340 326 313
238 338 68 12 328 351 61 41 125 152 201 124 117 62 54 82 88 91 90 96 75 55 43 25 4 344 350 310 297 311 305 302
171 22 66 238 50 96 87 51 49 84 86 146 152 106 81 114 127 127 130 146 119 114 73 311 278 296 301 329 306 304 301 297
116 76 321 274 245 181 140 217 226 122 131 134 101 63 36 60 188 148 154 184 202 203 212 269 282 278 301 305 299 300 280 278
102 113 188 228 145 294 125 232 185 155 175 154 93 63 250 183 161 191 202 213 232 241 251 261 287 282 289 292 291 277 271 265
101 173 285 252 255 161 210 242 130 166 161 143 144 193 214 181 192 219 264 270 267 286 280 319 335 329 304 297 295 290 289 289
98 85 279 35 338 185 184 95 136 119 111 103 110 107 159 221 289 350 336 341 342 339 335 346 337 331 307 307 304 311 306 300
160 211 274 307 111 102 138 120 94 112 137 136 116 63 49 6 29 354 352 349 18 23 342 329 322 321 315 307 315 309 300 296
84 286 160 100 95 117 106 111 127 148 152 104 113 129 85 74 51 33 3 11 357 353 342 323 316 318 304 308 310 308 306 313
37 303 80 13 135 115 107 108 112 99 81 89 76 63 98 86 40 18 350 345 346 340 319 307 313 323 318 315 321 322 321 316
203 192 159 204 357 92 100 78 72 93 61 54 99 112 124 105 37 349 327 324 333 325 324 326 338 335 340 329 321 325 327 324
155 153 116 103 77 71 102 99 95 92 94 102 85 132 133 137 307 314 312 313 328 328 330 337 337 335 337 333 332 343 327 324